EW9636 Weather Reports


Display with metric or nautical units.
time (UTC)temp
F
wind
direction
speed
MPH
gust
MPH
rain 1hr
in
rain 24hr
in
rain mn
in
humidity
%
barometer
mb
20260507161620 58 180 4.0 7.0 0.00 0.00 0.00 71 1014.9
20260507160620 58 180 4.0 6.0 0.00 0.00 0.00 70 1014.9
20260507155620 58 180 4.0 6.0 0.00 0.00 0.00 70 1014.9
20260507154640 58 180 6.0 8.0 0.00 0.00 0.00 69 1014.9
20260507153620 57 180 3.0 5.0 0.00 0.00 0.00 70 1014.9
20260507152620 57 203 4.0 5.0 0.00 0.00 0.00 70 1014.8
20260507151620 57 158 3.0 6.0 0.00 0.00 0.00 71 1014.9
20260507150640 58 180 4.0 5.0 0.00 0.00 0.00 70 1015.0
20260507145620 58 180 3.0 6.0 0.00 0.00 0.00 69 1015.0
20260507144620 58 180 4.0 6.0 0.00 0.00 0.00 67 1015.1
20260507143619 57 158 4.0 6.0 0.00 0.00 0.00 68 1015.1
20260507142619 57 180 4.0 5.0 0.00 0.00 0.00 71 1015.2
20260507141619 57 180 5.0 6.0 0.00 0.00 0.00 71 1015.3
20260507140619 57 180 4.0 6.0 0.00 0.00 0.00 70 1015.3
20260507135620 57 180 4.0 5.0 0.00 0.00 0.00 70 1015.3
20260507134619 57 135 4.0 5.0 0.00 0.00 0.00 69 1015.3
20260507133619 58 135 3.0 4.0 0.00 0.00 0.00 67 1015.3
20260507132619 58 135 5.0 7.0 0.00 0.00 0.00 69 1015.3
20260507131619 57 135 2.0 4.0 0.00 0.00 0.00 71 1015.4
20260507130619 57 158 2.0 4.0 0.00 0.00 0.00 70 1015.5
20260507125619 57 158 3.0 4.0 0.00 0.00 0.00 68 1015.5
20260507124620 57 180 4.0 6.0 0.00 0.00 0.00 68 1015.6
20260507123640 57 180 3.0 5.0 0.00 0.00 0.00 68 1015.5
20260507122620 57 180 4.0 6.0 0.00 0.00 0.00 68 1015.5
20260507121619 57 180 4.0 6.0 0.00 0.00 0.00 66 1015.5
20260507120620 58 158 3.0 6.0 0.00 0.00 0.00 64 1015.6
20260507115619 58 203 5.0 9.0 0.00 0.00 0.00 62 1015.7
20260507114639 58 180 3.0 5.0 0.00 0.00 0.00 62 1015.7
20260507113619 58 180 4.0 5.0 0.00 0.00 0.00 61 1015.7
20260507112619 59 225 2.0 3.0 0.00 0.00 0.00 61 1015.7
20260507111619 59 135 3.0 7.0 0.00 0.00 0.00 62 1015.7
20260507110619 59 158 5.0 10.0 0.00 0.00 0.00 63 1016.0
20260507105619 59 158 4.0 7.0 0.00 0.00 0.00 71 1016.1
20260507104659 57 135 2.0 4.0 0.00 0.00 0.00 71 1016.2
20260507103619 58 135 3.0 5.0 0.00 0.00 0.00 70 1016.3
20260507102619 56 113 3.0 5.0 0.00 0.00 0.00 76 1016.3
20260507101619 55 90 1.0 3.0 0.00 0.00 0.00 77 1016.3
20260507100619 54 135 4.0 8.0 0.00 0.00 0.00 79 1016.4
20260507095619 53 158 4.0 5.0 0.00 0.00 0.00 82 1016.4
20260507094619 51 68 2.0 3.0 0.00 0.00 0.00 84 1016.4
20260507093619 50 45 3.0 6.0 0.00 0.00 0.00 85 1016.3
20260507092619 49 0.0 1.0 0.00 0.00 0.00 85 1016.3
20260507091639 49 113 1.0 3.0 0.00 0.00 0.00 85 1016.4
20260507090619 49 135 1.0 4.0 0.00 0.00 0.00 86 1016.3
20260507085619 48 113 1.0 2.0 0.00 0.00 0.00 86 1016.3
20260507084619 48 90 2.0 3.0 0.00 0.00 0.00 87 1016.5
20260507083619 47 0.0 2.0 0.00 0.00 0.00 87 1016.4
20260507082619 47 0.0 0.0 0.00 0.00 0.00 88 1016.5
20260507081619 47 0.0 0.0 0.00 0.00 0.00 89 1016.5
20260507080619 46 0.0 0.0 0.00 0.00 0.00 89 1016.5
20260507075619 46 0.0 0.0 0.00 0.00 0.00 89 1016.4
20260507074619 46 0.0 1.0 0.00 0.00 0.00 90 1016.4
20260507073619 45 0.0 0.0 0.00 0.00 0.00 90 1016.4
20260507072619 45 0.0 0.0 0.00 0.00 0.00 91 1016.5
20260507071619 45 0.0 0.0 0.00 0.00 0.00 91 1016.3
20260507070619 45 0.0 0.0 0.00 0.00 0.00 91 1016.2
20260507065619 45 0.0 0.0 0.00 0.00 0.00 91 1016.0
20260507064619 45 0.0 0.0 0.00 0.00 0.00 91 1016.2
20260507063619 44 0.0 1.0 0.00 0.00 0.00 92 1016.1
20260507062619 44 68 1.0 2.0 0.00 0.00 0.00 92 1016.1
20260507061619 44 0.0 1.0 0.00 0.00 0.00 92 1016.2
20260507060639 44 113 1.0 2.0 0.00 0.00 0.00 92 1016.0
20260507055619 44 135 1.0 2.0 0.00 0.00 0.00 91 1016.1
20260507054619 44 113 1.0 2.0 0.00 0.00 0.00 91 1016.0
20260507053639 44 68 1.0 2.0 0.00 0.00 0.00 91 1016.0
20260507052619 44 0.0 0.0 0.00 0.00 0.00 91 1016.0
20260507051639 44 0.0 0.0 0.00 0.00 0.00 91 1015.9
20260507050619 44 0.0 0.0 0.00 0.00 0.00 91 1016.0
20260507045639 44 68 1.0 2.0 0.00 0.00 0.00 91 1015.8
20260507044619 44 45 1.0 2.0 0.00 0.00 0.00 91 1015.7
20260507043618 44 0.0 1.0 0.00 0.00 0.00 91 1015.7
20260507042619 44 0.0 0.0 0.00 0.00 0.00 90 1015.6
20260507041619 44 90 2.0 3.0 0.00 0.00 0.00 90 1015.6
20260507040618 44 68 1.0 2.0 0.00 0.00 0.00 90 1015.6
20260507035619 44 0.0 0.0 0.00 0.00 0.00 90 1015.6
20260507034619 44 90 1.0 2.0 0.00 0.00 0.00 90 1015.7
20260507033618 44 0.0 0.0 0.00 0.00 0.00 90 1015.7
20260507032638 44 0.0 1.0 0.00 0.00 0.00 90 1015.6
20260507031618 44 68 1.0 2.0 0.00 0.00 0.00 90 1015.8
20260507030618 44 68 1.0 2.0 0.00 0.00 0.00 89 1015.8
20260507025619 44 0.0 0.0 0.00 0.00 0.00 89 1015.9
20260507024618 44 45 2.0 4.0 0.00 0.00 0.00 89 1015.8
20260507023618 44 0.0 0.0 0.00 0.00 0.00 89 1015.8
20260507022618 45 90 1.0 2.0 0.00 0.00 0.00 89 1015.8
20260507021618 45 90 1.0 3.0 0.00 0.00 0.00 88 1015.9
20260507020618 45 68 2.0 3.0 0.00 0.00 0.00 88 1015.9
20260507015618 45 0.0 1.0 0.00 0.00 0.00 88 1015.8
20260507014618 45 45 1.0 2.0 0.00 0.00 0.00 88 1015.8
20260507013618 45 45 1.0 2.0 0.00 0.00 0.00 88 1015.9
20260507012618 45 45 2.0 4.0 0.00 0.00 0.00 88 1015.8
20260507011618 46 45 1.0 3.0 0.00 0.00 0.00 87 1015.9
20260507010618 46 0.0 2.0 0.00 0.00 0.00 87 1015.9
20260507005619 46 0.0 1.0 0.00 0.00 0.00 87 1015.9
20260507004618 46 0.0 0.0 0.00 0.00 0.00 87 1015.8
20260507003618 46 0.0 0.0 0.00 0.00 0.00 86 1015.9
20260507002638 46 68 1.0 2.0 0.00 0.00 0.00 86 1015.9
20260507001620 46 45 2.0 4.0 0.00 0.00 0.00 86 1016.0
20260507000640 46 0.0 1.0 0.00 0.00 0.00 86 1016.0
20260506235620 46 90 1.0 3.0 0.00 0.00 0.00 85 1016.0
20260506234640 46 90 3.0 5.0 0.00 0.00 0.00 85 1016.0
20260506233620 46 90 2.0 4.0 0.00 0.00 0.00 85 1015.9
20260506232620 47 113 3.0 5.0 0.00 0.00 0.00 84 1015.9
20260506231620 47 113 2.0 4.0 0.00 0.00 0.00 84 1015.9
20260506230621 47 90 2.0 5.0 0.00 0.00 0.00 84 1015.8
20260506225618 47 113 3.0 5.0 0.00 0.00 0.00 83 1015.7
20260506224618 48 90 3.0 4.0 0.00 0.00 0.00 82 1015.7
20260506223618 48 113 2.0 3.0 0.00 0.00 0.00 81 1015.7
20260506222618 48 113 2.0 4.0 0.00 0.00 0.00 81 1015.6
20260506221638 48 90 1.0 2.0 0.00 0.00 0.00 80 1015.6
20260506220638 48 113 2.0 3.0 0.00 0.00 0.00 79 1015.6
20260506215640 48 113 2.0 3.0 0.00 0.00 0.00 78 1015.6
20260506214620 49 135 3.0 4.0 0.00 0.00 0.00 78 1015.6
20260506213620 49 90 2.0 4.0 0.00 0.00 0.00 78 1015.4
20260506212620 49 135 1.0 2.0 0.00 0.00 0.00 77 1015.4
20260506211619 49 90 2.0 3.0 0.00 0.00 0.00 76 1015.3
20260506210619 49 0.0 2.0 0.00 0.00 0.00 76 1015.2
20260506205619 49 90 2.0 5.0 0.00 0.00 0.00 74 1015.2
20260506204619 49 90 3.0 5.0 0.00 0.00 0.00 73 1015.2
20260506203619 50 90 2.0 4.0 0.00 0.00 0.00 72 1015.2
20260506202619 50 68 2.0 3.0 0.00 0.00 0.00 70 1015.0
20260506201619 51 90 2.0 4.0 0.00 0.00 0.00 69 1014.9
20260506200639 51 113 2.0 5.0 0.00 0.00 0.00 67 1014.9
20260506195619 52 90 1.0 3.0 0.00 0.00 0.00 66 1014.9
20260506194639 52 23 2.0 4.0 0.00 0.00 0.00 66 1014.7
20260506193619 53 0.0 0.0 0.00 0.00 0.00 64 1014.6
20260506192639 53 90 2.0 3.0 0.00 0.00 0.00 62 1014.7
20260506191619 53 90 1.0 3.0 0.00 0.00 0.00 62 1014.6
20260506190619 54 90 2.0 4.0 0.00 0.00 0.00 61 1014.5
20260506185619 54 90 2.0 4.0 0.00 0.00 0.00 59 1014.7
20260506184619 55 45 2.0 4.0 0.00 0.00 0.00 59 1014.6
20260506183619 56 113 1.0 3.0 0.00 0.00 0.00 58 1014.7
20260506182619 57 90 1.0 2.0 0.00 0.00 0.00 55 1014.6
20260506181619 58 90 1.0 3.0 0.00 0.00 0.00 54 1014.6
20260506180619 58 45 1.0 3.0 0.00 0.00 0.00 55 1014.5
20260506175619 58 45 3.0 6.0 0.00 0.00 0.00 53 1014.5
20260506174619 58 45 3.0 6.0 0.00 0.00 0.00 53 1014.5
20260506173618 58 45 3.0 5.0 0.00 0.00 0.00 55 1014.4
20260506172619 57 68 1.0 3.0 0.00 0.00 0.00 55 1014.4
20260506171618 57 45 2.0 5.0 0.00 0.00 0.00 56 1014.3
20260506170619 57 45 2.0 6.0 0.00 0.00 0.00 57 1014.3
20260506165659 57 45 2.0 4.0 0.00 0.00 0.00 55 1014.3
20260506164639 57 23 2.0 4.0 0.00 0.00 0.00 56 1014.3
20260506163618 57 113 1.0 3.0 0.00 0.00 0.00 55 1014.3
20260506162639 58 45 2.0 5.0 0.00 0.00 0.00 53 1014.3